Theta_e
316 317 319 319 318 319 320 320 321 320 316 315 318 318 318 313 311 312 311 309 307 306 302 301 302 304 303 304 305 307 309 308 308 308 306 305 303 301 299 298 299 301 301 302
315 317 318 319 318 319 319 319 319 319 315 314 317 318 318 316 312 312 311 309 307 304 303 301 302 304 303 303 304 305 306 309 308 307 304 302 299 297 295 294 294 295 296 296
319 319 316 317 316 317 317 318 319 319 316 314 316 318 319 318 312 309 309 308 306 305 304 302 302 302 302 302 302 303 304 304 303 301 299 297 295 295 294 292 291 291 292 292
317 317 314 315 316 315 318 318 317 317 317 320 317 323 322 320 311 308 307 306 305 304 303 301 300 301 300 299 299 300 299 300 300 301 300 300 298 294 292 291 290 289 289 289
318 313 314 316 316 315 317 315 315 316 317 319 321 319 321 317 314 310 308 306 305 303 302 301 299 297 296 296 296 296 296 296 296 296 296 294 293 292 291 290 289 288 287 288
315 313 314 315 314 314 314 315 315 315 318 325 322 322 323 319 315 313 308 305 305 303 301 299 296 294 294 294 294 294 294 293 294 294 294 293 292 291 291 290 289 288 288 287
317 316 315 313 315 312 315 317 326 326 323 325 318 323 322 320 313 314 308 306 305 302 300 298 295 294 293 293 293 293 292 292 292 292 292 292 291 291 291 290 289 289 288 286
322 323 318 314 318 320 315 319 327 332 330 327 312 320 320 313 311 309 308 306 304 302 300 297 296 294 293 292 292 291 291 291 291 290 290 290 290 290 289 289 288 288 286 285
323 325 315 314 315 318 318 319 320 321 314 320 319 316 315 308 307 306 308 305 304 302 299 297 295 294 293 292 291 291 290 290 290 289 289 289 289 289 288 288 287 286 285 284
322 325 314 311 309 311 315 315 318 318 328 329 323 321 320 312 309 307 307 306 304 301 299 298 296 294 292 291 291 290 290 289 289 289 289 289 288 288 287 287 286 285 284 283
319 320 316 309 312 316 313 315 317 318 322 330 329 322 316 317 312 309 307 305 304 302 300 298 296 294 292 291 290 290 289 289 289 289 288 288 288 287 287 286 285 285 284 283
319 321 325 321 313 312 315 316 317 320 321 319 321 323 308 313 314 310 308 305 304 303 301 299 297 294 292 291 290 289 289 288 288 288 288 288 287 287 286 286 285 284 284 283
317 319 325 323 315 310 311 313 315 316 318 323 325 323 308 308 310 310 308 306 305 303 301 299 298 295 293 291 290 289 288 288 288 288 288 287 287 286 286 285 285 284 284 283
316 319 323 327 324 317 314 313 313 315 320 321 321 321 310 309 309 309 309 307 305 304 302 300 299 297 294 292 290 289 289 288 288 288 287 287 286 286 286 285 284 284 284 283
317 318 320 321 321 320 317 316 314 314 315 320 320 319 318 311 311 309 308 306 305 304 302 300 299 298 295 293 291 290 289 288 288 287 287 287 286 286 285 285 284 284 283 282
313 318 318 320 320 320 321 317 316 314 314 315 317 318 318 315 310 308 307 306 304 303 302 301 299 298 297 294 292 290 289 288 287 287 287 286 286 286 285 284 284 283 282 282
311 313 316 321 319 319 315 315 315 316 315 315 316 316 308 308 307 307 307 305 304 303 302 301 299 298 296 295 292 291 289 288 287 287 286 286 286 286 285 284 283 282 281 280
309 311 313 319 314 320 318 312 312 315 316 314 313 311 310 308 305 306 307 306 303 302 301 300 299 298 296 294 293 292 290 288 286 286 286 286 286 285 284 284 283 281 280 279
305 311 316 319 318 316 314 304 308 314 316 314 313 307 301 300 300 302 301 303 303 301 301 300 298 298 295 294 292 291 289 287 286 286 285 285 285 285 284 283 282 281 280 278
300 303 313 311 318 320 312 303 303 308 315 308 308 305 300 298 306 310 296 295 297 297 296 295 294 293 292 291 291 289 288 287 286 286 286 286 285 285 284 284 282 280 279 278
303 306 309 314 315 316 309 296 297 313 317 304 306 302 299 303 305 298 294 293 292 291 290 292 292 291 291 290 290 288 287 287 288 287 286 285 285 285 284 283 281 279 278 277
309 310 311 312 315 315 296 293 306 304 295 299 303 301 298 295 292 292 291 290 289 289 289 289 289 290 290 290 289 288 288 289 288 287 286 286 285 284 282 281 279 278 277 275
308 310 314 312 311 294 296 295 295 294 296 294 298 296 296 292 291 291 290 289 289 289 288 288 289 288 288 288 288 288 288 287 287 286 285 284 283 281 280 279 277 276 275 273
296 293 301 303 298 297 293 296 294 292 292 292 293 294 293 291 290 290 289 289 288 288 288 288 288 288 287 287 287 287 287 286 286 285 283 282 280 279 277 276 275 274 273 273
296 294 297 295 292 292 295 294 293 292 290 290 289 290 291 290 289 289 289 288 288 288 287 287 287 287 287 287 286 286 286 285 285 283 281 279 278 276 275 274 274 273 273 273
292 295 298 301 295 298 297 297 293 292 290 290 290 288 288 289 289 288 288 288 287 287 287 286 286 286 286 286 285 284 283 283 281 279 277 276 275 274 273 273 273 272 272 272
Wind_Speed
9 9 15 19 17 18 11 12 14 11 4 4 14 16 12 14 12 12 10 9 8 6 4 4 4 5 7 8 10 12 16 18 23 24 20 19 18 17 17 17 16 15 14 13
4 16 19 15 10 16 16 16 17 15 4 4 14 19 16 14 17 15 13 11 10 9 8 7 7 8 8 9 9 10 11 10 8 10 12 12 14 16 17 17 19 18 18 17
18 8 6 13 10 12 16 18 15 16 1 11 13 21 23 21 11 9 11 11 11 12 12 10 10 10 10 10 10 11 11 11 11 13 16 18 19 17 17 16 19 21 20 20
16 19 7 10 16 14 17 15 15 14 8 10 4 11 10 15 14 15 15 14 14 13 12 12 12 11 10 9 9 11 12 13 12 12 13 13 14 17 15 16 17 19 19 19
6 8 12 17 16 13 8 2 7 11 13 16 18 9 8 5 14 19 18 17 17 15 14 13 14 12 10 10 10 11 13 14 13 15 16 18 19 17 16 15 18 18 18 18
17 3 10 11 2 10 10 6 2 3 8 13 18 17 14 13 14 16 18 19 19 17 15 15 13 12 12 11 12 12 14 14 15 17 17 18 19 18 16 13 13 13 13 14
18 18 6 5 6 4 13 8 4 5 6 8 2 14 17 5 6 11 22 22 21 19 17 15 15 15 13 12 12 13 14 14 15 17 18 18 17 17 17 13 12 11 11 10
15 10 24 18 24 12 17 18 7 7 8 7 2 10 7 2 9 4 18 20 20 19 16 15 18 17 16 15 15 15 16 16 15 16 17 17 16 16 15 13 12 11 10 9
10 10 2 8 11 16 10 15 15 5 2 4 7 8 5 7 7 7 18 20 21 20 18 18 20 19 18 18 17 18 16 15 15 16 17 15 13 13 14 14 12 11 10 9
2 7 4 5 3 7 8 10 7 7 6 8 9 13 10 11 15 15 18 20 19 19 19 17 21 21 19 17 16 15 16 17 15 14 14 14 14 14 14 12 10 10 10 8
9 4 4 6 12 18 7 10 10 8 9 4 4 7 10 14 18 22 19 20 21 21 20 18 21 23 21 19 18 17 16 16 16 14 13 14 14 14 13 13 12 11 10 8
12 3 8 18 4 14 20 15 21 7 6 9 7 10 2 2 13 17 18 18 20 21 20 18 23 23 22 22 21 20 19 19 18 16 15 15 15 15 14 13 12 11 9 7
12 5 3 4 7 4 10 15 17 20 1 16 8 8 2 4 8 14 17 18 18 19 19 18 21 24 25 24 23 23 22 21 20 19 17 17 16 16 15 14 13 11 9 6
12 6 10 17 6 11 11 19 22 16 10 23 19 12 4 9 12 14 15 17 18 20 20 19 17 23 25 25 25 24 23 22 22 21 21 20 20 18 16 15 14 12 10 8
14 10 18 25 24 11 9 16 24 25 34 17 35 23 13 15 15 18 16 16 17 19 20 21 20 20 25 25 25 24 23 25 25 25 24 23 22 20 18 18 16 15 13 10
4 8 13 20 25 24 22 12 25 32 33 31 33 25 10 15 10 12 16 17 18 19 21 21 19 21 25 27 27 26 26 28 28 27 26 24 23 22 23 20 18 16 14 13
9 7 7 15 12 17 7 31 21 25 30 22 28 31 4 5 8 11 12 15 16 18 19 19 19 22 25 27 28 28 29 27 30 28 28 28 26 26 26 22 19 18 16 14
6 8 5 5 4 10 11 6 18 30 24 23 18 3 2 5 6 4 4 10 12 12 13 14 17 21 23 24 26 24 25 28 30 30 32 30 30 29 26 24 22 19 17 16
5 6 4 5 10 12 16 4 7 13 24 21 15 8 7 7 5 5 6 4 8 9 9 15 19 20 21 22 23 25 27 28 30 32 33 34 32 30 28 27 25 21 19 18
0 3 4 4 5 8 4 4 2 7 12 7 11 12 10 10 7 10 10 6 6 10 13 16 19 20 21 20 22 26 27 28 30 31 32 32 32 31 30 29 26 22 20 19
4 3 12 10 6 5 1 6 2 7 3 2 11 14 13 11 6 5 11 7 10 12 17 18 19 19 18 19 22 23 23 27 28 27 25 25 26 27 28 26 23 23 20 19
11 10 6 6 5 10 7 4 8 2 2 3 5 6 10 6 6 7 9 10 9 11 15 16 17 16 15 18 21 21 22 22 21 20 21 22 24 24 24 24 23 21 19 19
5 5 4 5 1 2 2 3 0 1 1 3 4 4 7 7 5 9 10 9 7 14 16 17 17 15 15 17 20 21 22 20 18 19 20 20 20 21 21 22 21 19 19 19
4 3 1 3 3 4 1 4 4 4 4 1 2 6 8 9 9 6 6 6 6 11 11 12 12 13 16 18 20 19 16 16 17 18 18 18 19 19 19 18 18 19 19 18
2 7 6 3 1 3 4 7 8 6 2 2 3 3 6 8 6 5 5 5 7 12 12 14 17 18 20 19 20 19 18 16 15 16 16 16 16 18 17 18 18 20 20 19
5 4 5 2 11 5 8 16 14 10 5 4 5 4 3 6 8 5 5 9 12 14 13 14 16 17 15 12 13 15 16 16 15 14 13 13 13 13 15 13 14 17 18 17
Wind_Direction
204 218 222 227 228 251 280 284 263 267 104 263 243 253 232 199 213 219 216 208 199 183 155 143 121 114 100 92 101 110 120 118 117 107 95 92 92 89 83 79 79 77 76 76
189 230 240 246 272 239 245 254 257 268 156 249 268 264 257 204 215 219 217 206 192 171 160 147 137 129 113 106 106 108 113 123 120 113 111 112 108 96 93 85 79 76 76 74
228 237 242 223 222 226 238 246 253 258 340 241 272 269 252 237 213 217 227 204 187 179 160 151 148 140 134 127 123 120 116 117 118 118 115 111 106 100 91 82 82 79 81 79
250 244 196 200 229 216 248 234 249 262 254 262 170 282 273 211 210 214 209 197 185 171 160 149 149 144 137 129 124 119 117 114 113 120 120 119 113 105 100 95 93 88 86 80
214 183 203 223 226 204 252 71 225 243 254 270 254 267 273 192 221 212 204 197 185 173 168 159 152 140 129 126 124 124 119 114 115 116 118 114 110 107 106 101 93 84 82 80
260 26 219 221 185 200 133 118 112 255 259 256 240 230 259 210 227 202 192 191 180 173 168 161 154 152 143 135 129 125 122 118 120 121 121 122 121 120 116 110 100 91 84 79
228 223 194 175 153 160 197 183 246 241 210 256 313 215 249 199 186 205 184 185 179 173 173 168 169 168 155 144 135 130 129 124 122 119 120 124 125 125 122 118 115 109 98 88
214 227 202 201 215 199 200 200 200 241 236 266 24 236 240 314 113 166 180 179 176 177 176 176 175 170 163 154 151 146 143 138 136 131 128 127 126 126 124 125 122 117 115 107
207 241 261 182 223 215 179 224 229 312 145 274 216 250 242 165 179 182 174 178 180 178 178 178 177 177 172 169 164 160 156 149 145 141 137 133 131 130 130 130 129 126 123 113
241 265 161 154 188 263 222 172 184 212 226 237 242 241 236 209 197 185 182 185 180 179 181 179 181 182 180 177 170 167 162 156 152 148 145 142 142 140 138 136 134 135 132 131
223 219 143 143 202 190 185 212 220 215 224 250 279 246 194 201 190 188 187 185 182 183 183 182 183 183 182 179 174 172 170 165 161 158 155 152 149 148 149 150 151 156 151 146
196 174 235 230 214 235 223 215 206 208 196 232 274 257 102 106 183 179 183 186 186 188 184 181 181 181 182 180 179 180 178 175 173 170 167 166 168 164 163 165 167 166 161 162
160 194 202 251 213 190 226 216 228 230 311 231 203 249 101 130 159 179 183 184 186 184 184 184 183 186 185 183 182 185 185 183 179 178 177 178 178 179 176 179 178 178 180 177
152 157 207 229 229 153 201 207 208 217 228 240 235 250 177 206 187 180 185 185 183 184 186 188 189 190 188 187 185 189 189 187 183 185 187 189 189 188 188 190 188 192 197 202
175 220 218 243 255 251 199 204 203 207 226 214 245 237 219 202 195 192 180 174 182 186 189 194 193 190 186 186 187 191 191 190 189 191 194 196 194 194 195 199 199 206 211 218
195 233 224 249 246 244 252 245 215 215 228 230 246 250 237 196 185 163 177 175 185 191 197 196 193 188 189 186 188 190 193 193 192 194 198 196 198 199 203 208 210 216 221 229
186 211 209 246 240 252 257 231 233 233 227 228 236 243 107 123 176 192 179 182 189 196 196 193 191 189 189 187 186 192 195 191 192 196 199 201 199 206 212 214 218 221 226 235
179 196 222 261 94 227 247 241 232 231 238 227 242 168 114 161 125 357 271 205 205 196 187 187 185 186 186 187 191 196 193 192 192 197 205 205 208 213 215 218 222 225 229 237
216 188 211 224 225 287 287 194 182 194 242 231 226 147 115 80 75 244 223 221 195 174 170 172 176 182 178 183 185 187 189 191 197 205 207 213 216 218 220 222 224 227 230 235
172 293 221 156 233 234 332 100 104 100 260 182 165 163 137 130 200 231 167 169 143 136 140 138 149 160 169 177 182 186 188 194 203 209 216 219 222 224 225 228 227 229 232 236
155 196 226 224 234 261 172 147 184 166 277 101 160 160 156 180 205 131 142 140 131 128 130 149 159 166 174 179 184 189 192 202 213 214 216 220 226 228 230 229 226 226 227 232
176 176 197 213 227 247 141 104 189 331 38 135 142 164 172 110 115 138 138 133 131 127 134 152 160 170 176 183 185 189 199 211 211 214 217 221 224 224 223 221 220 222 226 234
201 216 188 215 212 338 175 358 91 293 146 167 143 150 140 131 150 150 144 143 143 151 158 170 173 172 179 188 196 197 211 212 210 211 215 219 220 219 220 218 219 221 228 233
223 184 208 154 19 352 323 357 320 355 360 37 85 149 160 146 142 128 129 135 141 155 164 175 181 191 201 206 207 211 215 216 218 220 222 223 221 218 222 222 224 228 231 234
85 157 137 86 22 110 265 259 257 270 292 113 82 129 148 128 136 144 144 152 165 175 184 193 201 210 216 217 217 221 228 229 227 228 227 224 222 223 227 228 231 236 241 240
189 158 170 172 179 168 203 225 222 211 195 172 146 122 133 144 160 147 164 177 180 183 189 203 215 219 221 220 219 226 232 233 226 219 217 216 217 224 223 228 243 243 244 244